Flag for Germany Weather past 2 weeks in Uelzen, Lower Saxony, Germany

Now
43 °F

Scattered clouds.


Feels Like: 33 °F
Forecast: 35 / 43 °F
Wind: 24 mph from Northwest

Location: Fassberg

Current Time: Apr 1, 2015 at 1:15:56 PM

Latest Report: Apr 1, 2015 at 12:20 PM


Visibility: N/A

Pressure: 29.77 "Hg

Humidity: 76%

Dew point: 36 °F

Location of UelzenLocation

Historic Weather in Uelzen — Graph

°F

Uelzen temperature yesterday

Maximum temperature yesterday: 46 °F (at 9:20 AM)
Minimum temperature yesterday: 34 °F (at 5:20 AM)
Average temperature yesterday: 41 °F

Past Weeks' High & Low Weather Summary

 TemperatureHumidityPressure
High59 °F (Mar 18, 1:20 PM)100% (Mar 21, 5:20 AM)30.42 "Hg (Mar 21, 5:20 AM)
Low23 °F (Mar 20, 5:20 AM)29% (Mar 19, 3:20 PM)29.00 "Hg (Mar 29, 9:58 PM)
Average42 °F78%29.87 "Hg
* Reported Mar 17 10:20 AM — Apr 1 11:59 AM, Uelzen, Weather by CustomWeather, © 2015

Note: Actual official high and low records may vary slightly from our data, if they occured in-between our weather recording intervals... More about our weather records

Advertising

Uelzen weather history for previous 24 hours

 ConditionsComfort  
Time TempWeatherWind HumidityBarometerVisibility
11:59 AM
Wed, Apr 1
41 °FSprinkles. Partly sunny.29 mph76%29.77 "Hg5 mi
11:54 AM41 °FSprinkles. Scattered clouds.29 mph76%29.77 "Hg6 mi
11:20 AM39 °FScattered clouds.16 mph81%29.77 "HgN/A
10:20 AM39 °FThunderstorms. Partly sunny.23 mph81%29.74 "Hg4 mi
9:20 AM37 °FPartly sunny.14 mph93%29.71 "HgN/A
8:20 AM36 °FSprinkles. Partly sunny.14 mph93%29.68 "HgN/A
7:20 AM36 °FPassing clouds.14 mph93%29.65 "HgN/A
6:20 AM36 °FSnow flurries. Passing clouds.15 mph93%29.65 "Hg5 mi
5:50 AM36 °FPartly cloudy.13 mph87%29.62 "Hg5 mi
5:20 AM36 °FPassing clouds.15 mph87%29.62 "HgN/A
4:45 AM36 °FPassing clouds.15 mph93%29.59 "Hg5 mi
4:20 AM36 °FPassing clouds.13 mph93%29.59 "Hg4 mi
3:20 AM36 °FPassing clouds.16 mph93%29.59 "HgN/A
2:20 AM36 °FPassing clouds.21 mph93%29.56 "HgN/A
1:20 AM36 °FPassing clouds.16 mph87%29.53 "HgN/A
12:20 AM37 °FPassing clouds.18 mph87%29.53 "HgN/A
11:20 PM
Tue, Mar 31
36 °FPartly cloudy.22 mph93%29.50 "Hg5 mi
10:20 PM39 °FSnow showers. Passing clouds.15 mph81%29.50 "Hg2 mi
9:49 PM39 °FThunderstorms. Partly cloudy.20 mph81%29.47 "HgN/A
9:20 PM43 °FPartly cloudy.22 mph66%29.47 "HgN/A
8:20 PM43 °FBroken clouds.28 mph66%29.45 "HgN/A
7:20 PM43 °FBroken clouds.32 mph71%29.42 "HgN/A
6:20 PM43 °FPartly sunny.30 mph76%29.36 "HgN/A
5:20 PM43 °FBroken clouds.31 mph81%29.30 "Hg5 mi
5:00 PM43 °FSprinkles. Partly sunny.31 mph87%29.27 "Hg5 mi
4:50 PM43 °FRain showers. Partly sunny.29 mph87%29.27 "Hg3 mi
4:20 PM43 °FRain showers. Partly sunny.24 mph87%29.24 "Hg5 mi
3:20 PM43 °FRain showers. Broken clouds.30 mph87%29.18 "Hg3 mi
2:20 PM45 °FSprinkles. Broken clouds.29 mph81%29.15 "HgN/A
1:20 PM46 °FSprinkles. Broken clouds.30 mph76%29.12 "Hg5 mi
Weather by CustomWeather, © 2015

See weather overviewHow to use our weather pages